Location: Campillo
(40.8621°N, 4.2488°W)
Time: 11:31:56
(UTC+00:00)

ATLAS 2AS CENTAUR R/B - Pass Details

Date: 11 May 2021
Orbit: 949 x 1263 km, 63.7° (Epoch: 07 May)

Event Time Altitude Azimuth Distance (km) Brightness Sun altitude
Rises 23:14:21 0° 323° (NW) 4,063 6.8 -29.4°
Reaches altitude 10° 23:17:11 10° 322° (NW) 3,054 5.9 -29.6°
Maximum altitude 23:24:22 70° 241° (WSW) 1,148 2.7 -29.9°
Enters shadow 23:24:29 70° 234° (SW) 1,148 2.6 -29.9°
